Location: Bismarck
(46.7731°N, 100.8200°W)
Time: 22:39:48
(UTC-05:00)

ISS - All Passes

Search period start: 22 April 2018 00:00
Search period end: 02 May 2018 00:00
Orbit: 403 x 406 km, 51.6° (Epoch: 23 April)

Date Brightness Start Highest point End Pass type
(mag) Time Alt. Az. Time Alt. Az. Time Alt. Az.
22 Apr - 10:39:49 10° SW 10:43:02 57° SSE 10:46:17 10° ENE daylight
22 Apr - 12:16:30 10° W 12:19:38 40° NNW 12:22:46 10° ENE daylight
22 Apr - 13:53:30 10° WNW 13:56:35 35° N 13:59:39 10° ENE daylight
22 Apr - 15:30:01 10° WNW 15:33:19 87° SSW 15:36:37 10° ESE daylight
22 Apr - 17:07:21 10° W 17:09:23 15° SW 17:11:25 10° S daylight
23 Apr - 09:47:55 10° SSW 09:50:55 34° SE 09:53:55 10° ENE daylight
23 Apr - 11:24:06 10° W 11:27:19 52° NNW 11:30:33 10° ENE daylight
23 Apr - 13:01:11 10° WNW 13:04:13 33° N 13:07:15 10° ENE daylight
23 Apr - 14:37:48 10° WNW 14:41:04 63° NNE 14:44:20 10° ESE daylight
23 Apr - 16:14:34 10° W 16:17:22 26° SW 16:20:09 10° SSE daylight
24 Apr - 08:56:23 10° S 08:58:51 20° SE 09:01:20 10° E daylight
24 Apr - 10:31:46 10° WSW 10:35:02 76° NNW 10:38:20 10° ENE daylight
24 Apr - 12:08:48 10° WNW 12:11:50 34° N 12:14:53 10° ENE daylight
24 Apr - 13:45:34 10° WNW 13:48:46 46° NNE 13:51:57 10° E daylight
24 Apr - 15:22:07 10° WNW 15:25:16 43° SW 15:28:24 10° SE daylight
25 Apr - 08:05:37 10° SSE 08:06:51 12° SE 08:08:05 10° ESE daylight
25 Apr - 09:39:33 10° SW 09:42:48 69° SSE 09:46:04 10° ENE daylight
25 Apr - 11:16:22 10° W 11:19:28 38° N 11:22:34 10° ENE daylight
25 Apr - 12:53:18 10° WNW 12:56:24 37° N 12:59:30 10° E daylight
25 Apr - 14:29:48 10° WNW 14:33:05 74° SSW 14:36:21 10° SE daylight
25 Apr - 16:07:33 10° WSW 16:09:04 13° SW 16:10:35 10° SSW daylight
26 Apr - 08:47:32 10° SW 08:50:37 40° SE 08:53:43 10° ENE daylight
26 Apr - 10:23:54 10° W 10:27:05 47° NNW 10:30:17 10° ENE daylight
26 Apr - 12:00:58 10° WNW 12:04:01 33° N 12:07:02 10° ENE daylight
26 Apr - 13:37:32 10° WNW 13:40:49 72° NNE 13:44:06 10° ESE daylight
26 Apr - 15:14:27 10° W 15:17:02 21° SW 15:19:37 10° S daylight
27 Apr - 07:55:48 10° SSW 07:58:29 24° SE 08:01:12 10° E daylight
27 Apr - 09:31:29 10° WSW 09:34:45 66° NNW 09:38:01 10° ENE daylight
27 Apr - 11:08:34 10° WNW 11:11:35 33° N 11:14:37 10° ENE daylight
27 Apr - 12:45:17 10° WNW 12:48:30 50° NNE 12:51:43 10° E daylight
27 Apr - 14:21:52 10° WNW 14:24:56 36° SW 14:27:58 10° SSE daylight
28 Apr - 07:04:35 10° S 07:06:26 14° SE 07:08:16 10° E daylight
28 Apr - 08:39:11 10° WSW 08:42:27 82° SSE 08:45:45 10° ENE daylight
28 Apr - 10:16:05 10° WNW 10:19:10 36° N 10:22:15 10° ENE daylight
28 Apr - 11:52:59 10° WNW 11:56:07 39° NNE 11:59:14 10° E daylight
28 Apr - 13:29:28 10° WNW 13:32:44 61° SSW 13:35:58 10° SE daylight
28 Apr - 15:08:07 10° WSW 15:08:38 10° SW 15:09:08 10° SW daylight
29 Apr - 07:47:03 10° SW 07:50:13 49° SSE 07:53:24 10° ENE daylight
29 Apr - 09:23:36 10° W 09:26:45 43° NNW 09:29:55 10° ENE daylight
29 Apr - 11:00:39 10° WNW 11:03:41 34° N 11:06:44 10° ENE daylight
29 Apr - 12:37:09 10° WNW 12:40:27 83° NNE 12:43:44 10° ESE daylight
29 Apr - 14:14:16 10° W 14:16:35 18° SW 14:18:53 10° S daylight
30 Apr - 06:55:09 10° SSW 06:58:02 29° SE 07:00:55 10° E daylight
30 Apr - 08:31:07 10° W 08:34:22 58° NNW 08:37:36 10° ENE daylight
30 Apr - 10:08:12 10° WNW 10:11:14 33° N 10:14:15 10° ENE daylight
30 Apr - 11:44:52 10° WNW 11:48:06 56° NNE 11:51:21 10° E daylight
30 Apr - 13:21:32 10° W 13:24:27 30° SW 13:27:22 10° SSE daylight
01 May - 06:03:40 10° S 06:05:54 17° SE 06:08:08 10° E daylight
01 May - 07:38:44 10° WSW 07:42:01 86° NNW 07:45:18 10° ENE daylight
01 May - 09:15:43 10° WNW 09:18:46 35° N 09:21:49 10° ENE daylight
01 May - 10:52:33 10° WNW 10:55:42 42° NNE 10:58:51 10° E daylight
01 May - 12:29:03 10° WNW 12:32:14 51° SSW 12:35:26 10° SE daylight
